When you browse on this site, cookies collect data to enhance your experience and personalize the content and advertising you see.
Visit our Privacy Policy to learn more. By continuing to use the site, you agree to this use of cookies and data.
  • In United Kingdom
  • List of Countries
  • For 7 days
  • Water Temperature
  • Satellite Maps
  • Weather Map
  • Weather Widgets
  • user-avatar
    Login

    Hourly Weather Klagenfurt

    Today, 20 February, Wednesday

    Time Temperature Precipitation Wind Pressure Humidity
    00:00 +2°C° 0 mm 1 mps 692 mmHg 88%
    01:00 +2°C° 0 mm 1 mps 692 mmHg 88%
    02:00 +2°C° 0 mm 1 mps 692 mmHg 87%
    03:00 +2°C° 0 mm 1 mps 692 mmHg 87%
    04:00 +2°C° 0 mm 1 mps 692 mmHg 86%
    05:00 +2°C° 0 mm 1 mps 692 mmHg 85%
    06:00 +1°C° 0 mm 1 mps 692 mmHg 84%
    07:00 +1°C° 0 mm 1 mps 692 mmHg 83%
    08:00 +4°C° 0 mm 1 mps 693 mmHg 75%
    09:00 +5°C° 0 mm 0 mps 693 mmHg 67%
    10:00 +7°C° 0 mm 0 mps 694 mmHg 60%
    11:00 +8°C° 0 mm 0 mps 694 mmHg 57%
    12:00 +9°C° 0 mm 0 mps 694 mmHg 55%
    13:00 +10°C° 0 mm 0 mps 695 mmHg 52%
    14:00 +9°C° 0 mm 0 mps 694 mmHg 54%
    15:00 +9°C° 0 mm 0 mps 694 mmHg 56%
    16:00 +9°C° 0 mm 0 mps 694 mmHg 58%
    17:00 +7°C° 0 mm 0 mps 694 mmHg 65%
    18:00 +5°C° 0 mm 0 mps 694 mmHg 71%
    19:00 +4°C° 0 mm 0 mps 694 mmHg 78%
    20:00 +3°C° 0 mm 0 mps 694 mmHg 79%
    21:00 +3°C° 0 mm 0 mps 695 mmHg 81%
    22:00 +3°C° 0 mm 0 mps 695 mmHg 82%
    23:00 +2°C° 0 mm 0 mps 695 mmHg 83%

    Tomorrow, 21 February, Thursday

    Time Temperature Precipitation Wind Pressure Humidity
    00:00 +3°C° 0 mm 1 mps 695 mmHg 84%
    01:00 +3°C° 0 mm 1 mps 695 mmHg 85%
    02:00 +3°C° 0 mm 1 mps 695 mmHg 85%
    03:00 +2°C° 0 mm 1 mps 695 mmHg 85%
    04:00 +2°C° 0 mm 1 mps 695 mmHg 85%
    05:00 +2°C° 0 mm 1 mps 695 mmHg 85%
    06:00 +2°C° 0 mm 1 mps 695 mmHg 85%
    07:00 +1°C° 0 mm 0 mps 696 mmHg 85%
    08:00 +3°C° 0 mm 0 mps 696 mmHg 78%
    09:00 +5°C° 0 mm 0 mps 696 mmHg 71%
    10:00 +7°C° 0 mm 0 mps 697 mmHg 63%
    11:00 +9°C° 0 mm 0 mps 697 mmHg 60%
    12:00 +10°C° 0 mm 0 mps 697 mmHg 56%
    13:00 +11°C° 0 mm 0 mps 697 mmHg 52%
    14:00 +11°C° 0 mm 0 mps 697 mmHg 53%
    15:00 +10°C° 0 mm 0 mps 696 mmHg 54%
    16:00 +10°C° 0 mm 0 mps 696 mmHg 55%
    17:00 +8°C° 0 mm 0 mps 696 mmHg 62%
    18:00 +8°C° 0 mm 1 mps 696 mmHg 68%
    19:00 +6°C° 0 mm 1 mps 696 mmHg 74%
    20:00 +6°C° 0 mm 1 mps 696 mmHg 76%
    21:00 +5°C° 0 mm 1 mps 696 mmHg 78%
    22:00 +5°C° 0 mm 1 mps 696 mmHg 80%
    23:00 +4°C° 0 mm 1 mps 696 mmHg 80%

    Day after tomorrow, 22 February, Friday

    Time Temperature Precipitation Wind Pressure Humidity
    00:00 +4°C° 0 mm 1 mps 696 mmHg 80%
    01:00 +4°C° 0 mm 1 mps 696 mmHg 81%
    02:00 +4°C° 0 mm 1 mps 696 mmHg 79%
    03:00 +3°C° 0 mm 1 mps 696 mmHg 78%
    04:00 +3°C° 0 mm 1 mps 695 mmHg 77%
    05:00 +3°C° 0 mm 1 mps 696 mmHg 76%
    06:00 +3°C° 0 mm 1 mps 696 mmHg 75%
    07:00 +3°C° 0 mm 1 mps 696 mmHg 73%
    08:00 +5°C° 0 mm 1 mps 696 mmHg 68%
    09:00 +7°C° 0 mm 1 mps 696 mmHg 63%
    10:00 +9°C° 0 mm 1 mps 697 mmHg 58%
    11:00 +9°C° 0 mm 2 mps 697 mmHg 53%
    12:00 +10°C° 0 mm 2 mps 697 mmHg 48%
    13:00 +11°C° 0 mm 3 mps 697 mmHg 44%
    14:00 +12°C° 0 mm 2 mps 697 mmHg 46%
    15:00 +12°C° 0 mm 2 mps 697 mmHg 48%
    16:00 +10°C° 0 mm 2 mps 697 mmHg 50%
    17:00 +9°C° 0 mm 2 mps 697 mmHg 56%
    18:00 +7°C° 0 mm 2 mps 697 mmHg 63%
    19:00 +6°C° 0 mm 1 mps 697 mmHg 70%
    20:00 +6°C° 0 mm 1 mps 697 mmHg 72%
    21:00 +5°C° 0 mm 1 mps 698 mmHg 75%
    22:00 +4°C° 0 mm 1 mps 698 mmHg 77%
    23:00 +4°C° 0 mm 1 mps 699 mmHg 80%

    23 February, Saturday

    Time Temperature Precipitation Wind Pressure Humidity
    00:00 +4°C° 0 mm 1 mps 699 mmHg 82%
    01:00 +3°C° 0 mm 1 mps 699 mmHg 85%
    02:00 +3°C° 0 mm 1 mps 699 mmHg 87%
    03:00 +2°C° 0 mm 1 mps 699 mmHg 89%
    04:00 +2°C° 0 mm 1 mps 699 mmHg 91%
    05:00 +1°C° 0 mm 1 mps 700 mmHg 90%
    06:00 +1°C° 0 mm 1 mps 700 mmHg 90%
    07:00 +1°C° 0 mm 1 mps 700 mmHg 90%
    08:00 +2°C° 0 mm 1 mps 700 mmHg 82%
    09:00 +1°C° 0 mm 2 mps 701 mmHg 75%
    10:00 +2°C° 0 mm 2 mps 701 mmHg 68%
    11:00 +3°C° 0 mm 2 mps 701 mmHg 61%
    12:00 +4°C° 0 mm 2 mps 701 mmHg 54%
    13:00 +6°C° 0 mm 2 mps 701 mmHg 47%
    14:00 +5°C° 0 mm 2 mps 701 mmHg 45%
    15:00 +5°C° 0 mm 2 mps 701 mmHg 42%
    16:00 +5°C° 0 mm 2 mps 701 mmHg 40%
    17:00 +3°C° 0 mm 2 mps 701 mmHg 46%
    18:00 +3°C° 0 mm 1 mps 701 mmHg 51%
    19:00 +1°C° 0 mm 1 mps 701 mmHg 56%
    20:00 0°C° 0 mm 1 mps 701 mmHg 57%
    21:00 0°C° 0 mm 1 mps 701 mmHg 57%
    22:00 -1°C° 0 mm 1 mps 701 mmHg 57%
    23:00 -1°C° 0 mm 1 mps 701 mmHg 56%

    24 February, Sunday

    Time Temperature Precipitation Wind Pressure Humidity
    00:00 -1°C° 0 mm 1 mps 701 mmHg 55%
    01:00 -1°C° 0 mm 1 mps 701 mmHg 54%
    02:00 -1°C° 0 mm 1 mps 700 mmHg 53%
    03:00 -1°C° 0 mm 1 mps 700 mmHg 52%
    04:00 -1°C° 0 mm 1 mps 700 mmHg 50%
    05:00 -1°C° 0 mm 1 mps 700 mmHg 49%
    06:00 -2°C° 0 mm 1 mps 700 mmHg 48%
    07:00 -2°C° 0 mm 1 mps 700 mmHg 47%
    08:00 0°C° 0 mm 1 mps 700 mmHg 41%
    09:00 +3°C° 0 mm 1 mps 701 mmHg 34%
    10:00 +5°C° 0 mm 1 mps 701 mmHg 28%
    11:00 +6°C° 0 mm 1 mps 701 mmHg 27%
    12:00 +8°C° 0 mm 1 mps 701 mmHg 27%
    13:00 +9°C° 0 mm 1 mps 701 mmHg 26%
    14:00 +9°C° 0 mm 1 mps 700 mmHg 29%
    15:00 +9°C° 0 mm 1 mps 700 mmHg 33%
    16:00 +8°C° 0 mm 1 mps 699 mmHg 36%
    17:00 +5°C° 0 mm 0 mps 699 mmHg 41%
    18:00 +3°C° 0 mm 0 mps 699 mmHg 46%
    19:00 +1°C° 0 mm 0 mps 699 mmHg 51%
    20:00 +1°C° 0 mm 0 mps 699 mmHg 52%
    21:00 +1°C° 0 mm 0 mps 699 mmHg 54%
    22:00 +1°C° 0 mm 0 mps 699 mmHg 55%
    23:00 +1°C° 0 mm 0 mps 698 mmHg 58%

    25 February, Monday

    Time Temperature Precipitation Wind Pressure Humidity
    00:00 +1°C° 0 mm 0 mps 698 mmHg 61%
    01:00 +1°C° 0 mm 0 mps 698 mmHg 63%
    02:00 +1°C° 0 mm 0 mps 698 mmHg 66%
    03:00 +2°C° 0 mm 1 mps 698 mmHg 68%
    04:00 +2°C° 0 mm 1 mps 698 mmHg 71%
    05:00 +2°C° 0 mm 1 mps 697 mmHg 72%
    06:00 +2°C° 0 mm 1 mps 697 mmHg 74%
    07:00 +2°C° 0 mm 1 mps 697 mmHg 75%
    08:00 +4°C° 0 mm 1 mps 698 mmHg 70%
    09:00 +6°C° 0 mm 1 mps 698 mmHg 65%
    10:00 +8°C° 0 mm 1 mps 699 mmHg 60%
    11:00 +8°C° 0 mm 2 mps 699 mmHg 58%
    12:00 +9°C° 0 mm 2 mps 699 mmHg 56%
    13:00 +10°C° 0 mm 2 mps 699 mmHg 54%
    14:00 +10°C° 0 mm 2 mps 699 mmHg 55%
    15:00 +9°C° 0 mm 2 mps 698 mmHg 57%
    16:00 +9°C° 0 mm 2 mps 698 mmHg 58%
    17:00 +8°C° 0 mm 2 mps 698 mmHg 65%
    18:00 +7°C° 0 mm 1 mps 698 mmHg 71%
    19:00 +5°C° 0 mm 1 mps 698 mmHg 78%
    20:00 +5°C° 0 mm 1 mps 698 mmHg 79%
    21:00 +4°C° 0 mm 1 mps 698 mmHg 81%
    22:00 +4°C° 0 mm 1 mps 698 mmHg 82%
    23:00 +4°C° 0 mm 1 mps 698 mmHg 82%
    Show more